Location: Coll
(42.4728°N, 0.7714°E)
Time: 06:36:42
(UTC+00:00)

BREEZE-M DEB (TANK) - Pass Details

Date: 23 October 2020
Orbit: 305 x 13930 km, 46.1° (Epoch: 23 November)

Event Time Altitude Azimuth Distance (km) Brightness Sun altitude
Exits shadow 04:00:05 28° 94° (E) 835 3.8 -26.4°
Drops below altitude 10° 04:01:14 10° 100° (E) 1,356 5.2 -26.1°
Sets 04:02:38 0° 103° (ESE) 2,056 6.4 -25.9°
